This is the latest recevied weather packets stored in our database for station/object SR9WXY. If no packets are shown the sender has not sent any weather packets the latest 10 day(s).
| Time | Temp. | Humidity | Pressure | Rain* | Wind** | Luminosity | Snow |
|---|---|---|---|---|---|---|---|
| 1787997592 | 13.33° C | 100% | 884.1 hPa | - | - | - | - |
| 1787997292 | 13.33° C | 100% | 884.1 hPa | - | - | - | - |
| 1787996992 | 14.44° C | 100% | 884 hPa | - | - | - | - |
| 1787996692 | 14.44° C | 100% | 884 hPa | - | - | - | - |
| 1787996392 | 13.33° C | 100% | 884 hPa | - | - | - | - |
| 1787996092 | 13.33° C | 100% | 884.1 hPa | - | - | - | - |
| 1787995792 | 12.78° C | 100% | 884.1 hPa | - | - | - | - |
| 1787995491 | 12.78° C | 100% | 884.1 hPa | - | - | - | - |
| 1787995191 | 12.78° C | 100% | 884 hPa | - | - | - | - |
| 1787994891 | 12.78° C | 100% | 883.9 hPa | - | - | - | - |
| 1787994591 | 13.33° C | 100% | 883.9 hPa | - | - | - | - |
| 1787994291 | 13.89° C | 100% | 883.7 hPa | - | - | - | - |
| 1787993991 | 13.33° C | 100% | 883.7 hPa | - | - | - | - |
| 1787993675 | 12.22° C | 100% | 883.7 hPa | - | - | - | - |
| 1787993375 | 11.67° C | 100% | 883.6 hPa | - | - | - | - |
| 1787993075 | 12.22° C | 100% | 883.5 hPa | - | - | - | - |
| 1787992775 | 12.22° C | 100% | 883.6 hPa | - | - | - | - |
| 1787992475 | 12.78° C | 100% | 883.5 hPa | - | - | - | - |
| 1787992174 | 13.33° C | 100% | 883.5 hPa | - | - | - | - |
| 1787991874 | 13.33° C | 100% | 883.3 hPa | - | - | - | - |
| 1787991574 | 13.89° C | 100% | 883.3 hPa | - | - | - | - |
| 1787991274 | 14.44° C | 100% | 883 hPa | - | - | - | - |
| 1787990974 | 13.89° C | 100% | 882.9 hPa | - | - | - | - |
| 1787990675 | 13.89° C | 100% | 883 hPa | - | - | - | - |
| 1787990374 | 13.89° C | 100% | 882.9 hPa | - | - | - | - |
* Rain since midnight (hover to see other rain measurements)
** Current wind speed in m/s (hover to see current wind gust speed)